Flag Weather past 2 weeks in Kfar Saba, Israel

Now
63 °F

Light rain. Passing clouds.


Feels Like: 63 °F
Forecast: 56 / 64 °F
Wind: 25 mph from West

Location: Dov Airport

Current Time: Nov 26, 2014 at 2:31:38 AM

Latest Report: Nov 25, 2014 at 11:50 PM


Visibility: 6 mi

Pressure: 29.86 "Hg

Humidity: 77%

Dew point: 55 °F

Location of Kfar SabaLocation

Historic Weather in Kfar Saba — Graph

°F

Kfar Saba temperature yesterday

Maximum temperature yesterday: 66 °F (at 10:50 AM)
Minimum temperature yesterday: 55 °F (at 3:50 AM)
Average temperature yesterday: 62 °F

Past Weeks' High & Low Weather Summary

 TemperatureHumidityPressure
High82 °F (Nov 19, 1:50 PM)94% (Nov 23, 9:50 PM)30.15 "Hg (Nov 23, 9:50 PM)
Low55 °F (Nov 25, 3:50 AM)30% (Nov 19, 12:50 PM)29.86 "Hg (Nov 14, 12:50 PM)
Average68 °F68%29.95 "Hg
* Reported Nov 11 4:50 AM — Nov 25 11:50 PM, Kfar Saba, Weather by CustomWeather, © 2014

Note: Actual official high and low records may vary slightly from our data, if they occured in-between our weather recording intervals... More about our weather records

Advertising

Kfar Saba weather history for previous 24 hours

 ConditionsComfort  
Time TempWeatherWind HumidityBarometerVisibility
11:50 PM
Nov 25
63 °FLight rain. Passing clouds.25 mph77%29.86 "Hg6 mi
10:50 PM64 °FRain. Passing clouds.24 mph78%29.86 "Hg4 mi
9:50 PM61 °FLight rain. Partly cloudy.26 mph83%29.86 "HgN/A
8:50 PM66 °FThunderstorms. Passing clouds.23 mph68%29.86 "HgN/A
7:50 PM64 °FThundershowers. Overcast.21 mph68%29.86 "HgN/A
6:50 PM66 °FPassing clouds.21 mph68%29.86 "HgN/A
5:50 PM63 °FPassing clouds.10 mph77%29.86 "HgN/A
4:50 PM64 °FThundershowers. Passing clouds.17 mph78%29.86 "HgN/A
3:50 PM63 °FThunderstorms. Scattered clouds.18 mph77%29.89 "Hg6 mi
3:00 PM66 °FRain. Broken clouds.18 mph68%29.86 "Hg4 mi
2:50 PM66 °FPartly sunny.20 mph73%29.89 "HgN/A
1:50 PM59 °FThunderstorms. Partly sunny.12 mph77%29.89 "Hg5 mi
12:50 PM66 °FLight rain. Cloudy.10 mph64%29.89 "HgN/A
11:50 AM66 °FMild.12 mph64%29.92 "HgN/A
10:50 AM66 °FPassing clouds.8 mph64%29.92 "HgN/A
9:50 AM63 °FMild.8 mph73%29.95 "HgN/A
8:50 AM61 °FPassing clouds.10 mph77%29.95 "HgN/A
7:50 AM57 °FScattered clouds.9 mph82%29.95 "HgN/A
7:00 AM55 °FLight rain. Partly sunny.9 mph88%29.95 "HgN/A
5:50 AM57 °FPassing clouds.7 mph77%29.92 "HgN/A
4:50 AM55 °FPassing clouds.7 mph82%29.92 "HgN/A
3:50 AM55 °FPassing clouds.8 mph82%29.92 "HgN/A
Weather by CustomWeather, © 2014

See weather overviewHow to use our weather pages